www.pogodaiklimat.ru

Погода и климат >> Архив погоды >> Россия >> Эвенкия >> Тура


ПОГОДА в Туре

АРХИВ ПОГОДЫ в Туре

Время (UTC), дата Ветер
(напр.,м/с)
 
Видим.   Явления Облачность Т
(С)
Тd
(С)
f
(%)
Тe
(С)
Тes
(С)
Комфортность P
(гПа)
Po
(гПа)
Тmin
(С)
Tmax
(С)
R
(мм)
R24
(мм)
S
(см)
09 15.10 В 1 20 км 10/8 600 м
[Cb cap Ac trans]
+1.9 -1.8 76 0 0 1024.6 1000.7
12 15.10 С 1 н/о 10/10 600 м
[Cb cap]
0.0 -2.4 84 -2 -2 1024.4 1000.4 +2.1
15 15.10 С 1 н/о 10/10 600 м
[Cb cap]
-0.5 -2.3 88 -3 -3 1023.8 999.7
18 15.10 СЗ 1 н/о 10/10 600 м
[Cb cap]
-1.0 -2.5 90 1023.1 998.9
21 15.10 З 2 н/о слабый ливневой снег 10/10 600 м
[Cb cap]
-1.3 -2.7 90 -5 -5 1022.6 998.4
00 16.10 СЗ 1 4000 м слабый ливневой снег 10/10 600 м
[Cb cap]
-1.4 -2.2 94 -4 -4 1022.6 998.4 -1.5 0.3 1
03 16.10 З 1 10 км {ливн. осадки} 6/3 600 м
[Cb cap Ac trans]
-0.7 -2.6 87 -3 -2 1023.1 999.0
06 16.10 З 2 20 км {ливн. осадки} 10/8 600 м
[Cb cap Ac trans]
+0.4 -2.4 81 -3 -3 1023.3 999.3
09 16.10 З 3 20 км 4/4 600 м
[Cb cap]
+1.2 -5.9 59 -3 -3 1023.2 999.3
12 16.10 Ю 1 н/о 3/3 600 м
[Cb cap]
-1.8 -6.0 73 -4 -4 1023.6 999.4 +2.1 0.0
15 16.10 СЗ 1 н/о ясно -5.2 -7.3 85 -8 -8 1024.1 999.5
18 16.10 штиль 0 н/о ясно -6.6 -7.8 91 -8 -8 1023.4 998.7
21 16.10 ЮВ 1 н/о 8/5 1000 м
[Sc Ci fib]
-7.9 -8.9 93 -10 -10 1023.0 998.1
00 17.10 В 2 20 км 8/8 600 м
[Cb cap]
-8.3 -9.3 92 -13 -13 1022.0 997.3 -8.7 0
03 17.10 Ю 1 20 км 8/3 600 м
[Cb cap Ci fib]
-6.8 -8.0 91 -9 -9 1021.0 996.4
06 17.10 ЮЗ 1 20 км 6/4 600 м
[Cu hum Ci fib]
-1.4 -5.4 74 -3 -3 1018.7 994.6
09 17.10 Ю 3 20 км 6/3 1000 м
[Cu Sc Ci fib]
+2.0 -7.7 49 -2 -2 1015.6 991.9
12 17.10 В 3 н/о 8/8 1000 м
[Cu Sc]
-0.1 -4.9 70 -4 -4 1014.9 991.0 +2.1
15 17.10 ЮВ 1 н/о {ливн. осадки} 10/10 600 м
[Cb cap]
-0.5 -3.2 82 -2 -2 1013.5 989.6
18 17.10 В 1 н/о {ливн. осадки} 10/10 600 м
[Cb cap]
-0.6 -3.1 83 -3 -3 1013.3 989.4
21 17.10 ЮЗ 3 н/о 9/6 1000 м
[Sc Ac trans Ci fib]
-0.1 -5.1 69 -4 -4 1013.5 989.6
00 18.10 ЮЗ 3 20 км 10/3 1000 м
[Sc Ac As]
-0.2 -5.6 67 -5 -5 1014.5 990.6 -0.8 0.0 <0.5
03 18.10 ЮЗ 4 20 км 10/4 1000 м
[Sc Ac As]
-0.1 -6.2 63 -5 -5 1014.8 990.9
06 18.10 ЮЗ 4 20 км 10/3 1000 м
[Sc Ac As]
+0.6 -7.5 55 -4 -4 1014.6 990.8
09 18.10 ЮЗ 2 20 км 10/5 1000 м
[Sc Ac trans Ci fib]
+1.2 -7.1 54 -2 -2 1013.8 990.1
12 18.10 З 1 н/о 6/6 600 м
[Cb cap]
+0.2 -6.1 63 -1 -1 1014.1 990.3 +1.3
15 18.10 З 1 н/о 8/8 600 м
[Cb cap]
-1.3 -6.0 70 -3 -3 1015.1 991.1
18 18.10 З 1 н/о 8/8 600 м
[Cb cap]
-1.8 -4.6 81 -4 -4 1015.1 991.1
21 18.10 СЗ 2 н/о 4/4 1000 м
[Sc]
-3.4 -4.8 90 -8 -8 1015.2 991.1
00 19.10 СЗ 2 н/о 8/6 1000 м
[Cu Sc Ac trans]
-3.2 -4.9 88 -7 -7 1016.1 992.0 -3.5
03 19.10 З 2 20 км 6/3 1000 м
[Sc Ac lent Ci fib]
-3.0 -4.7 88 -7 -7 1017.2 992.9 -3.7
06 19.10 ЮЗ 3 20 км 9/9 600 м
[Cb cap]
+0.6 -5.2 65 -4 -3 1017.1 993.2
09 19.10 ЮВ 1 20 км 9/9 600 м
[Cb cap]
+0.4 -6.2 61 -1 -1 1017.1 993.2
12 19.10 В 1 н/о 9/9 600 м
[Cb cap]
-0.2 -5.6 67 -2 -2 1017.6 993.6 +1.8
15 19.10 Ю 1 н/о 8/8 600 м
[Cb cap]
-0.2 -4.9 71 -2 -2 1016.8 992.9
18 19.10 ЮЗ 1 н/о слабый ливневой снег 10/10 600 м
[Cb cap]
-0.7 -2.9 85 1016.4 992.5
21 19.10 штиль 0 н/о слабый ливневой снег 10/10 600 м
[Cb cap]
-1.4 -2.8 90 -3 -3 1016.3 992.3
00 20.10 Ю 1 н/о слабый ливневой снег 10/10 600 м
[Cb cap]
-0.8 -1.8 93 -3 -3 1016.2 992.3 -1.8 0.5 1
03 20.10 Ю 1 20 км слабый ливневой снег 10/8 600 м
[Cb cap Cs]
-0.1 -1.8 88 -2 -2 1016.0 992.1
06 20.10 ЮЗ 2 20 км {ливн. осадки} 10/10 600 м
[Cb cap]
+1.8 -2.3 74 -1 -1 1015.4 991.7
09 20.10 штиль 0 10 км слабый ливневой снег 10/10 600 м
[Cb cap]
+1.6 -1.5 80 +1 +1 1015.7 992.0
12 20.10 Ю 1 н/о {ливн. осадки} 10/10 600 м
[Cb cap]
+1.2 -1.7 81 -1 -1 1015.9 992.2 +2.4 0.3
15 20.10 ЮЗ 2 н/о {ливн. осадки} 10/10 600 м
[Cb cap]
+1.5 -1.6 80 -2 -2 1016.3 992.5
18 20.10 З 2 н/о {ливн. осадки} 10/10 600 м
[Cb cap]
+1.9 -1.2 80 -1 -1 1016.5 992.8
21 20.10 З 1 н/о 8/8 600 м
[Cb cap]
+1.0 -2.2 79 -1 -1 1017.3 993.5
00 21.10 СЗ 1 н/о 8/8 600 м
[Cb cap]
-0.7 -4.2 77 -3 -3 1018.4 994.4 -0.7 0.0 <0.5
03 21.10 З 1 20 км 4/3 1000 м
[Cu hum Ac trans Ci fib]
-1.0 -4.2 79 -3 -3 1019.2 995.1 -3.1
06 21.10 Ю 1 20 км 9/9 1000 м
[Cu Sc]
+1.4 -3.8 68 0 0 1018.8 995.0
09 21.10 штиль 0 20 км 10/10 1000 м
[Sc]
+1.2 -4.0 68 0 0 1019.0 995.2
12 21.10 штиль 0 н/о 10/10 1000 м
[Sc]
-0.9 -4.1 79 -2 -2 1018.9 994.9 +1.7
15 21.10 СВ 1 н/о 10/0
[Cs]
-2.9 -4.6 88 -5 -5 1018.7 994.4
18 21.10 штиль 0 н/о 10/0
[Cs]
-5.7 -6.4 95 -7 -7 1018.3 993.9
21 21.10 штиль 0 н/о 10/0
[Cs]
-0.6 -7.8 58 -1 -1 1017.9 993.4
00 22.10 штиль 0 н/о дымка 10/0
[Cs]
-7.2 -8.1 93 -8 -8 1016.8 992.3 -7.2 0
03 22.10 штиль 0 20 км 8/3 600 м
[Cb cap Ac trans Ci fib]
-7.2 -8.5 90 -8 -8 1015.9 991.4 -7.4

 

Местоположение метеостанции Тура (Эвенкия, Россия): широта 64.33 долгота 100.40 высота над уровнем моря 624 м.

В архиве по умолчанию представлена погода в Туре за последнюю неделю. Архивные данные за месяц целиком и за предыдущие месяцы, начиная с января 2011 года, Вы можете получить, выбрав интересующий диапазон дат из раскрывающегося списка и нажав кнопку "Ввод!".


*Определитесь, кто Вы:
робот инопланетянин человек

Внимание! Время в таблицах - всемирное. Для получения местного времени необходимо прибавить поправку, которая в Туре равна 7 ч.

Смотрите также архив погоды в соседних городах и на ближайших метеорологических станциях:

Погода в Тембенчи (Эвенкия, Россия) (99 км)
Погода в Кербо (Эвенкия, Россия) (182 км)
Погода в Кислокане (Эвенкия, Россия) (190 км)
Погода в Стрелке-Чуне (Эвенкия, Россия) (311 км)
Погода в Тутончанах (Эвенкия, Россия) (320 км)
Погода в Муторае (Эвенкия, Россия) (334 км)
Погода в Байките (Эвенкия, Россия) (359 км)
Погода в Агате (Эвенкия, Россия) (426 км)
Погода в Усть-Камо (Эвенкия, Россия) (428 км)
Погода в Ванаваре (Эвенкия, Россия) (456 км)

Пояснения к столбцам:

Ветер - указаны скорость ветра в м/с - средняя за 10 мин, порывы в срок и между сроками (в фигурных скобках) и направление, откуда дует ветер: С - северный, СВ - северо-восточный, В - восточный, ЮВ - юго-восточный, Ю - южный, ЮЗ - юго-западный, З - западный, СЗ - северо-западный.
Видимость - горизонтальная дальность видимости в метрах или километрах. При видимости от 1 до 10 км при отсутствии осадков обычно наблюдается дымка, при ухудшении видимости до 1 км и менее - туман. В сухую погоду видимость может ухудшаться дымом, пылью или мглою.
Явления - указаны атмосферные явления, наблюдавшиеся в срок или в последний час перед сроком; фигурными скобками обозначены явления, наблюдавшиеся между сроками (за 1-3 часа до срока); квадратными скобками обозначены град или гололедные отложения с указанием их диаметра в мм.
Облачность - указаны через наклонную черту общая и нижняя облачность в баллах и высота нижней границы облаков в метрах; квадратными скобками обозначены формы облаков: Ci - перистые, Cs - перисто-слоистые, Cc - перисто-кучевые, Ac - высококучевые, As - высокослоистые, Sc - слоисто-кучевые, Ns - слоисто-дождевые, Cu - кучевые, Cb - кучево-дождевые. Подробнее классификацию облаков см. в Атласе облаков (PDF).
T - Температура воздуха - температура, измеренная на высоте 2 м над землей.
Td - Температура точки росы - температура, при понижении до которой содержащийся в воздухе водяной пар достигнет насыщения.
f - Относительная влажность воздуха - влажноcть воздуха, измеренная на высоте 2 м над землей.
Te - Эффективная температура - температура, которую ощущает одетый по сезону человек в тени. Характеристика душности погоды. При расчете учитывается влияние влажности воздуха и скорости ветра на теплоощущения человека.
Tes - Эффективная температура на солнце - температура, которую ощущает человек, с поправкой на солнечный нагрев. Характеристика знойности погоды. Зависит от высоты солнца над горизонтом, облачности и скорости ветра. Ночью, в пасмурную погоду, а также при ветре 12 м/с и более поправка равна нулю.
P - Атмосферное давление - приведенное к уровню моря атмосферное давление.
Po - Атмосферное давление - измеренное на уровне метеостанции атмосферное давление.
Tmin - Минимальная температура - минимум температуры воздуха на высоте 2 м над землей.
Tmax - Максимальная температура - максимум температуры воздуха на высоте 2 м над землей.
R - Количество осадков - Количество выпавших осадков за период времени, мм. При наведении курсора мыши на число - период времени, за который выпало указанное количество осадков.
R24 - Количество осадков - Количество выпавших осадков за 24 часа, мм.
S - Снежный покров - Высота снежного покрова, см. При наведении курсора мыши на число - состояние снежного покрова и степень покрытия местности в баллах.